Tracking 28790 objects as of 18-Apr-2024
HD Live streaming from Space Station
objects crossing your sky now

FENGYUN 1C DEB

Track FENGYUN 1C DEB now!
10-day predictions


NORAD ID: 31565
Int'l Code: 1999-025BZG
Perigee: 783.4 km
Apogee: 887.2 km
Inclination: 100.7 °
Period: 101.5 minutes
Semi major axis: 7206 km
RCS: 0.016 m2 (small)
Launch date: May 10, 1999
Source: People's Republic of China (PRC)
Launch site: Taiyaun Space Center, China (TSC)

Note: This is SATELLITE DEBRIS
Your satellite tracking list
Your tracking list is empty




NASA's NSSDC Master Catalog

Two Line Element Set (TLE):
1 31565U 99025BZG 24101.98559439  .00006111  00000-0  28699-2 0  9990
2 31565 100.7209 187.6784 0072011 255.0478 104.2710 14.19169616556234
Source of the keplerian elements: AFSPC